WetterOnline ( http://www.wetteronline.de )

Wetter aktuell Denkendorf

Aktuelles Wetter: Gelbelsee (539m)

6-stündlich | Neueste Meldungen
Ortszeit Temperatur Wetter
Mi, 15.08. 8:00 15.8° C leicht bewölkt
Mi, 15.08. 2:00 16.1° C wolkenlos
Di, 14.08. 20:00 19.4° C bedeckt
Di, 14.08. 14:00 20.8° C wolkig
Di, 14.08. 8:00 15.4° C wolkig
Di, 14.08. 2:00 15.6° C leicht bewölkt
Mo, 13.08. 20:00 18.2° C bedeckt
Mo, 13.08. 14:00 26.8° C bewölkt
Ortszeit Temperatur Wetter
Mi, 15.08. 8:30 15.8° C bedeckt
Mi, 15.08. 8:10 15.8° C bewölkt
Mi, 15.08. 8:00 15.8° C leicht bewölkt
Mi, 15.08. 7:50 15.8° C leicht bewölkt
Mi, 15.08. 7:40 15.2° C leicht bewölkt
Mi, 15.08. 7:30 15.0° C bewölkt
Mi, 15.08. 7:00 14.0° C bedeckt
Mi, 15.08. 6:30 13.9° C bedeckt
Mi, 15.08. 6:00 14.6° C bedeckt
Mi, 15.08. 5:30 15.4° C bedeckt
Ortszeit Relative Feuchte Sichtweite
Mi, 15.08. 8:00 85% 22 km
Mi, 15.08. 2:00 80% 35 km
Di, 14.08. 20:00 62% 70 km
Di, 14.08. 14:00 56% 45 km
Di, 14.08. 8:00 92% 30 km
Di, 14.08. 2:00 93% 55 km
Mo, 13.08. 20:00 90% 23 km
Mo, 13.08. 14:00 40% 55 km
Ortszeit Relative Feuchte Sichtweite
Mi, 15.08. 8:30 85% 15 km
Mi, 15.08. 8:10 85% -
Mi, 15.08. 8:00 85% 22 km
Mi, 15.08. 7:50 85% -
Mi, 15.08. 7:40 88% -
Mi, 15.08. 7:30 88% 17 km
Mi, 15.08. 7:00 91% 16 km
Mi, 15.08. 6:30 91% 16 km
Mi, 15.08. 6:00 88% 18 km
Mi, 15.08. 5:30 85% 21 km
Ortszeit Niederschlagsmenge Niederschlagsart
Mi, 15.08. 8:00 0.0 l/m2 in 12 Std. -
Mi, 15.08. 2:00 0.0 l/m2 in 6 Std. -
Di, 14.08. 20:00 0.0 l/m2 in 12 Std. -
Di, 14.08. 14:00 0.0 l/m2 in 6 Std. -
Di, 14.08. 8:00 6 l/m2 in 12 Std. -
Di, 14.08. 2:00 6 l/m2 in 6 Std. Regen
Mo, 13.08. 20:00 1 l/m2 in 12 Std. Regen
Mo, 13.08. 14:00 0.0 l/m2 in 6 Std. -
Ortszeit Niederschlagsmenge Niederschlagsart
Mi, 15.08. 8:30 0.0 l/m2 in 1 Std. -
Mi, 15.08. 8:10 keine Meldung -
Mi, 15.08. 8:00 0.0 l/m2 in 1 Std. -
Mi, 15.08. 7:50 keine Meldung -
Mi, 15.08. 7:40 keine Meldung -
Mi, 15.08. 7:30 0.0 l/m2 in 1 Std. -
Mi, 15.08. 7:00 0.0 l/m2 in 1 Std. -
Mi, 15.08. 6:30 0.0 l/m2 in 1 Std. -
Mi, 15.08. 6:00 0.0 l/m2 in 1 Std. -
Mi, 15.08. 5:30 0.0 l/m2 in 1 Std. -
Ortszeit Stärke Spitze Richtung
km/h Bft. km/h Grad Sektor
Mi, 15.08. 8:00 7 2 15 290° W
Mi, 15.08. 2:00 9 2 17 270° W
Di, 14.08. 20:00 7 2 32 310° NW
Di, 14.08. 14:00 15 3 33 280° W
Di, 14.08. 8:00 6 1 15 280° W
Di, 14.08. 2:00 9 2 15 230° SW
Mo, 13.08. 20:00 7 2 40 150° SO
Mo, 13.08. 14:00 13 3 37 310° NW
Ortszeit Stärke Spitze Richtung
km/h Bft. km/h Grad Sektor
Mi, 15.08. 8:30 4 1 11 280° W
Mi, 15.08. 8:10 7 2 - 290° W
Mi, 15.08. 8:00 7 2 11 290° W
Mi, 15.08. 7:50 7 2 - 290° W
Mi, 15.08. 7:40 7 2 - 290° W
Mi, 15.08. 7:30 7 2 11 300° NW
Mi, 15.08. 7:00 6 1 9 270° W
Mi, 15.08. 6:30 7 2 11 280° W
Mi, 15.08. 6:00 7 2 11 230° SW
Mi, 15.08. 5:30 0 0 7 - -
Ortszeit Untergrenze Bedeckung Gattung
total tief tief mittel hoch
Mi, 15.08. 8:00 1500 m 4/8 4/8 - - -
Mi, 15.08. 2:00 - 0/8 0/8 - - -
Di, 14.08. 20:00 960 m 8/8 8/8 - - -
Di, 14.08. 14:00 1140 m 5/8 5/8 - - -
Di, 14.08. 8:00 2100 m 8/8 1/8 - - -
Di, 14.08. 2:00 2100 m 4/8 1/8 - - -
Mo, 13.08. 20:00 3300 m 8/8 8/8 - - -
Mo, 13.08. 14:00 3000 m 7/8 7/8 - - -
Ortszeit Bedeckungsgrad in Achtel und Wolkenuntergrenze
Mi, 15.08. 8:30 7(1500m) 8(2700m)
Mi, 15.08. 8:10 7(1500m)
Mi, 15.08. 8:00 3(1500m) 4(1800m)
Mi, 15.08. 7:50 3(1500m) 4(1800m)
Mi, 15.08. 7:40 3(1800m)
Mi, 15.08. 7:30 3(1500m) 6(2100m) 7(2700m)
Mi, 15.08. 7:00 2(1350m) 7(2100m) 8(2700m)
Mi, 15.08. 6:30 1(1230m) 4(2100m) 8(2700m)
Mi, 15.08. 6:00 1(1500m) 8(2700m)
Mi, 15.08. 5:30 1(1500m) 3(2100m) 8(2700m)
Ortszeit Luftdruck NN (hPa) Tendenz (hPa in 3 Std.)
Mi, 15.08. 8:00 1020 + 0,7
Mi, 15.08. 2:00 1019 + 0,6
Di, 14.08. 20:00 1016 + 0,9
Di, 14.08. 14:00 1014 + 0,2
Di, 14.08. 8:00 1014 + 1,6
Di, 14.08. 2:00 1012 + 0,5
Mo, 13.08. 20:00 1010 0,0
Mo, 13.08. 14:00 1009 - 0,1
Ortszeit Luftdruck NN (hPa) Tendenz (hPa in 3 Std.)
Mi, 15.08. 8:30 1020 + 0,7
Mi, 15.08. 8:10 1020 keine Meldung
Mi, 15.08. 8:00 1020 + 0,7
Mi, 15.08. 7:50 1020 keine Meldung
Mi, 15.08. 7:40 1020 keine Meldung
Mi, 15.08. 7:30 1020 + 0,6
Mi, 15.08. 7:00 1020 + 0,5
Mi, 15.08. 6:30 1020 + 0,5
Mi, 15.08. 6:00 1020 + 0,5
Mi, 15.08. 5:30 1019 + 0,5
Ortszeit Schneehöhe (cm)
Mi, 15.08. 8:00 -
Mi, 15.08. 2:00 -
Di, 14.08. 20:00 -
Di, 14.08. 14:00 -
Di, 14.08. 8:00 -
Di, 14.08. 2:00 -
Mo, 13.08. 20:00 -
Mo, 13.08. 14:00 -
Ortszeit Schneehöhe (cm)
Mi, 15.08. 8:30 -
Mi, 15.08. 8:10 -
Mi, 15.08. 8:00 -
Mi, 15.08. 7:50 -
Mi, 15.08. 7:40 -
Mi, 15.08. 7:30 -
Mi, 15.08. 7:00 -
Mi, 15.08. 6:30 -
Mi, 15.08. 6:00 -
Mi, 15.08. 5:30 -
Link zu dieser Seite / Seite empfehlen

Das Wetter in ...